ITY1056 LIRA-LIMJ

Flight info

Callsign ITY1056
Flight time N/A
Altitude 32000
Route GILIO DCT ELB DCT BETEN DCT SPEZI M729 IDONA
Aircraft A20N/M-SDE2E3FGHIRWXY/LB1

Departure

Time N/A
Airport Ciampino–G. B. Pastine International Airport (LIRA)

Arrival

Time 2026-05-08 13:46
Airport Genoa Cristoforo Colombo Airport (LIMJ)
Time Latitude Longitude Altitude Speed Heading
2026-05-08 13:12 42.30544 11.01462 31997 ft 440 kts 309°
2026-05-08 13:12 42.32621 10.98472 31993 ft 426 kts 309°
2026-05-08 13:12 42.34573 10.95668 31992 ft 405 kts 308°
2026-05-08 13:12 42.36457 10.92955 31992 ft 386 kts 308°
2026-05-08 13:13 42.38255 10.90361 31992 ft 369 kts 308°
2026-05-08 13:13 42.39971 10.87878 31993 ft 353 kts 308°
2026-05-08 13:13 42.41613 10.85497 31990 ft 338 kts 308°
2026-05-08 13:13 42.43178 10.83221 31991 ft 323 kts 307°
2026-05-08 13:14 42.44676 10.81039 31989 ft 309 kts 307°
2026-05-08 13:14 42.46101 10.78957 31988 ft 294 kts 307°
2026-05-08 13:14 42.47486 10.76918 31995 ft 298 kts 306°
2026-05-08 13:14 42.48909 10.74783 31993 ft 311 kts 306°
2026-05-08 13:15 42.50376 10.72537 31993 ft 324 kts 306°
2026-05-08 13:15 42.51885 10.70185 31993 ft 337 kts 306°
2026-05-08 13:15 42.53438 10.67719 31996 ft 350 kts 305°
2026-05-08 13:15 42.55011 10.65181 31996 ft 362 kts 305°
2026-05-08 13:16 42.56644 10.62505 31992 ft 374 kts 305°
2026-05-08 13:16 42.58316 10.59722 31989 ft 386 kts 304°
2026-05-08 13:16 42.60023 10.56841 31993 ft 397 kts 304°
2026-05-08 13:16 42.61753 10.53885 31993 ft 400 kts 304°
2026-05-08 13:17 42.65995 10.48912 32005 ft 414 kts 324°
2026-05-08 13:17 42.71026 10.45061 31994 ft 415 kts 324°
2026-05-08 13:18 42.76025 10.41233 31986 ft 415 kts 324°
2026-05-08 13:18 42.81059 10.37381 31988 ft 416 kts 324°
2026-05-08 13:19 42.86149 10.33552 32007 ft 418 kts 324°
2026-05-08 13:19 42.91242 10.29698 32011 ft 419 kts 324°
2026-05-08 13:20 42.96345 10.25827 32023 ft 419 kts 324°
2026-05-08 13:20 43.01449 10.21947 32016 ft 420 kts 324°
2026-05-08 13:21 43.06554 10.18055 32015 ft 420 kts 324°
2026-05-08 13:21 43.11631 10.14172 32010 ft 420 kts 324°
2026-05-08 13:22 43.16734 10.10255 31990 ft 419 kts 324°
2026-05-08 13:22 43.21720 10.06433 31798 ft 399 kts 324°
2026-05-08 13:23 43.24063 10.04535 31669 ft 384 kts 322°
2026-05-08 13:23 43.26320 10.02673 31504 ft 371 kts 322°
2026-05-08 13:23 43.28519 10.00856 30976 ft 369 kts 322°
2026-05-08 13:23 43.30730 9.99004 30147 ft 376 kts 322°
2026-05-08 13:24 43.32956 9.97103 29448 ft 377 kts 322°
2026-05-08 13:24 43.35166 9.95195 28897 ft 373 kts 322°
2026-05-08 13:24 43.37357 9.93287 28320 ft 371 kts 322°
2026-05-08 13:24 43.39528 9.91379 27741 ft 370 kts 322°
2026-05-08 13:25 43.41696 9.89455 27160 ft 369 kts 322°
2026-05-08 13:25 43.43842 9.87533 26616 ft 368 kts 322°
2026-05-08 13:25 43.45975 9.85608 26064 ft 366 kts 322°
2026-05-08 13:25 43.48110 9.83771 25562 ft 366 kts 326°
2026-05-08 13:26 43.50350 9.82103 25061 ft 366 kts 328°
2026-05-08 13:26 43.52603 9.80469 24576 ft 364 kts 328°
2026-05-08 13:26 43.54842 9.78836 24179 ft 360 kts 328°
2026-05-08 13:26 43.57051 9.77220 24043 ft 359 kts 328°
2026-05-08 13:27 43.59266 9.75563 24001 ft 362 kts 327°
2026-05-08 13:27 43.61454 9.73829 24002 ft 362 kts 326°
2026-05-08 13:27 43.63609 9.72118 24000 ft 362 kts 326°
2026-05-08 13:27 43.65796 9.70380 24000 ft 361 kts 326°
2026-05-08 13:28 43.67977 9.68651 24002 ft 361 kts 326°
2026-05-08 13:28 43.70153 9.66929 23886 ft 359 kts 326°
2026-05-08 13:28 43.72321 9.65216 23561 ft 358 kts 326°
2026-05-08 13:28 43.74478 9.63509 23068 ft 356 kts 326°
2026-05-08 13:29 43.76622 9.61808 22560 ft 354 kts 326°
2026-05-08 13:29 43.78749 9.60117 22076 ft 351 kts 326°
2026-05-08 13:29 43.80858 9.58436 21599 ft 349 kts 326°
2026-05-08 13:29 43.82930 9.56781 21131 ft 347 kts 326°
2026-05-08 13:30 43.85016 9.55111 20614 ft 346 kts 326°
2026-05-08 13:30 43.87122 9.53414 19786 ft 355 kts 326°
2026-05-08 13:30 43.89288 9.51652 18888 ft 365 kts 326°
2026-05-08 13:30 43.91511 9.49824 17873 ft 376 kts 326°
2026-05-08 13:31 43.93776 9.47929 16806 ft 385 kts 326°
2026-05-08 13:31 43.96079 9.45957 15705 ft 392 kts 326°
2026-05-08 13:31 43.98381 9.43941 14542 ft 399 kts 326°
2026-05-08 13:31 44.00732 9.41836 13462 ft 403 kts 326°
2026-05-08 13:32 44.03075 9.39709 12510 ft 400 kts 326°
2026-05-08 13:32 44.05396 9.37585 11591 ft 398 kts 326°
2026-05-08 13:32 44.07701 9.35455 10721 ft 395 kts 326°
2026-05-08 13:32 44.09957 9.33350 10251 ft 383 kts 326°
2026-05-08 13:33 44.12117 9.31323 10067 ft 365 kts 326°
2026-05-08 13:33 44.14172 9.29386 10002 ft 344 kts 326°
2026-05-08 13:33 44.16075 9.27585 10001 ft 326 kts 326°
2026-05-08 13:33 44.17899 9.25854 10002 ft 307 kts 326°
2026-05-08 13:34 44.19616 9.24223 9999 ft 290 kts 326°
2026-05-08 13:34 44.21294 9.22625 10010 ft 305 kts 326°
2026-05-08 13:34 44.23146 9.20838 10005 ft 336 kts 322°
2026-05-08 13:34 44.24728 9.18470 10010 ft 327 kts 308°
2026-05-08 13:35 44.26085 9.16051 10009 ft 312 kts 308°
2026-05-08 13:35 44.27389 9.13723 10012 ft 295 kts 308°
2026-05-08 13:35 44.28633 9.11507 10016 ft 292 kts 308°
2026-05-08 13:35 44.29765 9.08941 10020 ft 330 kts 291°
2026-05-08 13:36 44.30378 9.05791 10015 ft 338 kts 283°
2026-05-08 13:36 44.30913 9.02649 10019 ft 324 kts 283°
2026-05-08 13:36 44.31419 8.99680 10016 ft 306 kts 283°
2026-05-08 13:36 44.31897 8.96873 10018 ft 289 kts 283°
2026-05-08 13:37 44.32369 8.94103 10023 ft 308 kts 283°
2026-05-08 13:37 44.32891 8.91036 10024 ft 336 kts 283°
2026-05-08 13:37 44.33432 8.87865 10021 ft 329 kts 283°
2026-05-08 13:37 44.33948 8.84837 10019 ft 311 kts 283°
2026-05-08 13:38 44.34436 8.81976 10019 ft 294 kts 283°
2026-05-08 13:38 44.34895 8.79271 9788 ft 289 kts 283°
2026-05-08 13:38 44.35365 8.76511 9220 ft 295 kts 283°
2026-05-08 13:38 44.35847 8.73687 8527 ft 302 kts 283°
2026-05-08 13:39 44.36342 8.70795 7604 ft 310 kts 283°
2026-05-08 13:39 44.36775 8.68884 7077 ft 307 kts 294°
2026-05-08 13:39 44.37472 8.65249 6517 ft 285 kts 269°
2026-05-08 13:39 44.37103 8.62609 5999 ft 273 kts 245°
2026-05-08 13:40 44.36431 8.61095 5662 ft 277 kts 228°
2026-05-08 13:40 44.34824 8.59407 5207 ft 304 kts 204°
2026-05-08 13:40 44.32714 8.58680 4746 ft 324 kts 182°
2026-05-08 13:40 44.30448 8.59113 4273 ft 334 kts 161°
2026-05-08 13:41 44.28506 8.60591 3808 ft 313 kts 139°
2026-05-08 13:41 44.27182 8.62853 3373 ft 292 kts 115°
2026-05-08 13:41 44.26714 8.65451 3306 ft 266 kts 90°
2026-05-08 13:41 44.27150 8.67913 3060 ft 264 kts 54°
2026-05-08 13:42 44.28558 8.69446 2939 ft 256 kts 19°
2026-05-08 13:42 44.30265 8.69818 3052 ft 243 kts
2026-05-08 13:42 44.31932 8.69856 3070 ft 237 kts 359°
2026-05-08 13:42 44.33568 8.69799 3054 ft 233 kts 356°
2026-05-08 13:43 44.35170 8.69684 3024 ft 228 kts 360°
2026-05-08 13:43 44.36703 8.69917 2969 ft 220 kts 13°
2026-05-08 13:43 44.38085 8.70636 2850 ft 201 kts 27°
2026-05-08 13:43 44.39202 8.71657 2399 ft 188 kts 40°
2026-05-08 13:44 44.40002 8.73073 1864 ft 185 kts 59°
2026-05-08 13:44 44.40549 8.74670 1341 ft 180 kts 66°
2026-05-08 13:44 44.40965 8.76325 913 ft 177 kts 70°
2026-05-08 13:44 44.41361 8.77848 808 ft 163 kts 67°
2026-05-08 13:45 44.41730 8.79381 698 ft 161 kts 72°
2026-05-08 13:45 44.41806 8.80843 490 ft 150 kts 95°
2026-05-08 13:45 44.41571 8.82262 124 ft 148 kts 100°
2026-05-08 13:45 44.41306 8.83569 35 ft 129 kts 100°
2026-05-08 13:46 44.41105 8.84667 20 ft 102 kts 105°
2026-05-08 13:46 44.40961 8.85399 20 ft 46 kts 104°
2026-05-08 13:46 44.40890 8.85761 23 ft 35 kts 109°
2026-05-08 13:46 44.40885 8.85992 23 ft 10 kts 73°
2026-05-08 13:47 44.40841 8.85940 21 ft 28 kts 290°
2026-05-08 13:47 44.40904 8.85652 24 ft 32 kts 286°
2026-05-08 13:47 44.40965 8.85338 22 ft 35 kts 285°
2026-05-08 13:47 44.41056 8.85188 17 ft 18 kts 37°
2026-05-08 13:48 44.41167 8.85253 20 ft 18 kts 15°
2026-05-08 13:48 44.41233 8.85272 20 ft 4 kts 349°
2026-05-08 13:48 44.41270 8.85247 20 ft 8 kts 334°
2026-05-08 13:48 44.41311 8.85177 20 ft 11 kts 300°
2026-05-08 13:49 44.41328 8.85110 20 ft 0 kts 281°
2026-05-08 13:49 44.41332 8.85079 20 ft 8 kts 281°
2026-05-08 13:49 44.41359 8.85024 20 ft 0 kts 338°
2026-05-08 13:49 44.41378 8.85024 22 ft 5 kts
2026-05-08 13:50 44.41410 8.85035 20 ft 0 kts 15°
2026-05-08 13:50 44.41414 8.85037 20 ft 0 kts 16°